Location: Quaker Farms
(41.4276°N, 73.1557°W)
Time: 02:04:13
(UTC+00:00)

Altair - Pass Details

Date: 21 June 2021
Orbit: 1501 x 1682 km, 47.2° (Epoch: 23 July)

Event Time Altitude Azimuth Distance (km) Brightness Sun altitude
Rises 01:29:00 0° 295° (WNW) 4,861 11.7 -9.6°
Reaches altitude 10° 01:32:39 10° 284° (WNW) 3,894 10.7 -10.1°
Maximum altitude 01:40:40 29° 231° (SW) 2,736 8.9 -11.1°
Drops below altitude 10° 01:48:47 10° 176° (S) 3,934 9.2 -12.2°
Enters shadow 01:50:14 - 172° (S) 4,298 9.3 -12.4°
Sets 01:52:32 0° 166° (SSE) 4,918 - -12.7°
